Vicksburg, LA

12:36 AM CDT on June 19, 2018 (GMT -0500)
Vicksburg Tallulah Regional

Weather History for KTVR - August, 2017

Change the Weather History Date:

Saturday, August 12, 2017

  Actual Average Record
Temperature  
Mean Temperature 81 °F 81 °F  
Max Temperature 90 °F 93 °F 101 °F (2007)
Min Temperature 72 °F 70 °F 55 °F (1967)
Degree Days  
Heating Degree Days 0 0  
Month to date heating degree days 0 0  
Since 1 June heating degree days 0 0  
Since 1 July heating degree days 0 0  
Cooling Degree Days 16 16  
Month to date cooling degree days 179 202  
Year to date cooling degree days 1619 1500  
Since 1 June cooling degree days 1119 1130  
Growing Degree Days 31 (Base 50)    
Moisture  
Dew Point 74 °F    
Average Humidity 80    
Maximum Humidity 100    
Minimum Humidity 59    
Precipitation  
Precipitation 0.00 in 0.10 in 1.10 in (2008)
Month to date precipitation 4.24 1.21  
Year to date precipitation 44.27 34.13  
Sea Level Pressure  
Sea Level Pressure 29.99 in    
Wind  
Wind Speed 2 mph (NNE)    
Max Wind Speed 9 mph    
Max Gust Speed 11 mph    
Visibility 7 miles    
Events      
T = Trace of Precipitation, MM = Missing Value Source: NWS Daily Summary

Daily Weather History Graph

Daily Weather History Graph

Search for Another Location

Airport or City:

Astronomy

Aug. 12, 2017 Rise Set
Actual Time 6:26 AM CDT 7:51 PM CDT
Civil Twilight 6:00 AM CDT 8:17 PM CDT
Nautical Twilight 5:29 AM CDT 8:48 PM CDT
Astronomical Twilight 4:56 AM CDT 9:20 PM CDT
Moon 11:06 PM CDT (8/12) 11:05 AM CDT (8/12)
Length of Visible Light 14h 16m
Length of Day
13h 24m
Waning Gibbous, 75% of the Moon is Illuminated
Aug 12
Waning Gibbous
Aug 14
Last Quarter
Aug 21
New
Aug 29
First Quarter
Sep 6
Full

Hourly Weather History & Observations

Time (CDT) Temp. Heat Index Dew Point Humidity Pressure Visibility Wind Dir Wind Speed Gust Speed Precip Events Conditions
12:26 AM 73.9 °F - 73.0 °F 97% 29.96 in 6.0 mi Calm Calm - N/A   Scattered Clouds
12:38 AM 73.9 °F - 73.0 °F 97% 29.97 in 5.0 mi Calm Calm - N/A   Mostly Cloudy
12:53 AM 73.9 °F - 73.0 °F 97% 29.99 in 5.0 mi Calm Calm - N/A   Overcast
1:18 AM 73.0 °F - 72.0 °F 96% 29.97 in 5.0 mi Calm Calm - N/A   Scattered Clouds
1:31 AM 73.0 °F - 72.0 °F 96% 29.98 in 1.8 mi Calm Calm - N/A   Clear
1:42 AM 73.0 °F - 72.0 °F 96% 29.98 in 3.0 mi Calm Calm - N/A   Clear
1:53 AM 73.0 °F - 72.0 °F 96% 30.00 in 5.0 mi Calm Calm - N/A   Clear
2:53 AM 73.0 °F - 73.0 °F 100% 29.99 in 6.0 mi SE 3.5 mph - N/A   Clear
3:53 AM 73.0 °F - 72.0 °F 96% 29.99 in 5.0 mi Calm Calm - N/A   Clear
4:53 AM 72.0 °F - 71.1 °F 97% 29.99 in 5.0 mi Calm Calm - N/A   Clear
5:15 AM 72.0 °F - 71.1 °F 97% 29.98 in 5.0 mi Calm Calm - N/A   Partly Cloudy
5:53 AM 73.0 °F - 72.0 °F 96% 30.00 in 5.0 mi Calm Calm - N/A   Mostly Cloudy
6:53 AM 73.0 °F - 72.0 °F 96% 30.01 in 4.0 mi Calm Calm - N/A   Partly Cloudy
7:20 AM 73.9 °F - 73.0 °F 97% 30.00 in 5.0 mi Calm Calm - N/A   Partly Cloudy
7:53 AM 75.0 °F - 73.9 °F 96% 30.03 in 9.0 mi Calm Calm - N/A   Partly Cloudy
8:08 AM 75.9 °F - 75.0 °F 97% 30.01 in 10.0 mi Calm Calm - N/A   Mostly Cloudy
8:53 AM 77.0 °F - 73.9 °F 90% 30.03 in 10.0 mi WNW 3.5 mph - N/A   Overcast
9:53 AM 78.1 °F - 73.9 °F 87% 30.03 in 10.0 mi WNW 5.8 mph - N/A   Overcast
10:53 AM 80.1 °F 85.1 °F 75.0 °F 85% 30.03 in 10.0 mi NNW 3.5 mph - N/A   Overcast
11:49 AM 80.6 °F 85.4 °F 73.4 °F 79% 30.01 in 10.0 mi Calm Calm - N/A   Overcast
11:53 AM 82.0 °F 88.6 °F 75.0 °F 79% 30.03 in 10.0 mi Calm Calm - N/A   Overcast
12:53 PM 86.0 °F 95.1 °F 75.0 °F 70% 30.02 in 10.0 mi NW 3.5 mph - N/A   Mostly Cloudy
1:17 PM 86.0 °F 95.1 °F 75.0 °F 70% 29.99 in 1.5 mi NNE 3.5 mph - N/A   Haze
1:25 PM 84.9 °F 93.3 °F 75.0 °F 72% 29.99 in 10.0 mi Calm Calm - N/A   Mostly Cloudy
1:48 PM 87.8 °F 99.7 °F 77.0 °F 70% 29.98 in 10.0 mi East 4.6 mph - N/A   Scattered Clouds
1:53 PM 88.0 °F 98.5 °F 75.9 °F 67% 30.00 in 10.0 mi NNE 6.9 mph - N/A   Scattered Clouds
2:53 PM 87.1 °F 96.3 °F 75.0 °F 67% 29.99 in 10.0 mi ENE 5.8 mph - N/A   Scattered Clouds
3:53 PM 89.1 °F 99.1 °F 75.0 °F 63% 29.97 in 10.0 mi ENE 5.8 mph - N/A   Partly Cloudy
4:53 PM 90.0 °F 97.9 °F 73.0 °F 57% 29.96 in 10.0 mi North 4.6 mph - N/A   Clear
5:53 PM 90.0 °F 99.0 °F 73.9 °F 59% 29.95 in 10.0 mi NNE 4.6 mph - N/A   Clear
6:53 PM 86.0 °F 95.1 °F 75.0 °F 70% 29.94 in 10.0 mi NE 3.5 mph - N/A   Clear
7:53 PM 80.1 °F 86.4 °F 78.1 °F 94% 29.96 in 10.0 mi Calm Calm - N/A   Clear
8:53 PM 79.0 °F - 78.1 °F 97% 29.97 in 7.0 mi Calm Calm - N/A   Clear
9:53 PM 79.0 °F - 77.0 °F 94% 29.98 in 6.0 mi Calm Calm - N/A   Clear
10:53 PM 78.1 °F - 77.0 °F 96% 29.98 in 7.0 mi Calm Calm - N/A   Clear
11:53 PM 78.1 °F - 75.9 °F 93% 29.96 in 6.0 mi Calm Calm - N/A   Clear